Вернуться в каталог

OPS 5268

DMSP 5A F3

АктивенПогодаSSO
NORAD 4953·PAYLOAD·🇺🇸 United States

Запущен Feb 17, 1971 с Vandenberg Space Force Base

Loading…

Ближайшие Пролёты (ближайшие 24 часа)

TLE

СвежийSource: Space-Track

Эпоха: Sep 14, 2026, 01:49 UTC

1 04953U 71012A   26257.07586880  .00000146  00000-0  57100-4 0  9994
2 04953  98.4672 126.1161 0037566 158.0013 202.2799 14.42209866911590

Отслеживайте OPS 5268 в реальном времени с AllMySat

Download on the App Store